Time,TemperatureF,DewpointF,PressureIn,WindDirection,WindDirectionDegrees,WindSpeedMPH,WindSpeedGustMPH,Humidity,HourlyPrecipIn,Conditions,Clouds,dailyrainin,SoftwareType,DateUTC
2013-03-04 00:00:00,38.5,33.5,30.28,ENE,68,1.3,3.4,82,0.00,,,0.00,WUHU216HW,2013-03-04 08:00:00,
2013-03-04 00:05:00,38.5,33.5,30.28,ENE,68,1.6,3.1,82,0.00,,,0.00,WUHU216HW,2013-03-04 08:05:00,
2013-03-04 00:10:00,38.3,33.3,30.28,ENE,68,1.1,3.1,82,0.00,,,0.00,WUHU216HW,2013-03-04 08:10:00,
2013-03-04 00:15:00,38.2,33.1,30.28,ENE,68,0.9,2.5,82,0.00,,,0.00,WUHU216HW,2013-03-04 08:15:00,
2013-03-04 00:20:00,38.2,33.1,30.28,East,90,1.8,2.5,82,0.00,,,0.00,WUHU216HW,2013-03-04 08:20:00,
2013-03-04 00:25:00,38.0,33.3,30.28,East,90,2.0,2.2,83,0.00,,,0.00,WUHU216HW,2013-03-04 08:25:00,
2013-03-04 00:30:00,38.2,33.5,30.28,ESE,113,0.9,2.0,83,0.00,,,0.00,WUHU216HW,2013-03-04 08:30:00,
2013-03-04 00:35:00,38.2,33.5,30.28,ESE,113,0.4,2.0,83,0.00,,,0.00,WUHU216HW,2013-03-04 08:35:00,
2013-03-04 00:40:00,38.3,33.7,30.28,ENE,68,1.3,2.5,83,0.00,,,0.00,WUHU216HW,2013-03-04 08:40:00,
2013-03-04 00:45:00,38.3,33.7,30.28,ESE,113,1.1,2.5,83,0.00,,,0.00,WUHU216HW,2013-03-04 08:45:00,
2013-03-04 00:50:00,38.5,33.9,30.28,SE,135,0.7,2.2,83,0.00,,,0.00,WUHU216HW,2013-03-04 08:50:00,
2013-03-04 00:55:00,38.3,33.7,30.28,ENE,68,1.3,2.2,83,0.00,,,0.00,WUHU216HW,2013-03-04 08:55:00,
2013-03-04 01:00:00,38.0,33.3,30.27,ENE,68,1.8,1.8,83,0.00,,,0.00,WUHU216HW,2013-03-04 09:00:00,
2013-03-04 01:05:00,37.8,33.1,30.27,East,90,1.1,1.8,83,0.00,,,0.00,WUHU216HW,2013-03-04 09:05:00,
2013-03-04 01:10:00,37.8,33.1,30.27,East,90,1.8,1.8,83,0.00,,,0.00,WUHU216HW,2013-03-04 09:10:00,
2013-03-04 01:15:00,37.8,33.1,30.27,ESE,113,1.8,1.8,83,0.00,,,0.00,WUHU216HW,2013-03-04 09:15:00,
2013-03-04 01:20:00,37.8,33.4,30.27,ENE,68,1.3,2.5,84,0.00,,,0.00,WUHU216HW,2013-03-04 09:20:00,
2013-03-04 01:25:00,37.6,33.2,30.27,ENE,68,4.0,4.0,84,0.00,,,0.00,WUHU216HW,2013-03-04 09:25:00,
2013-03-04 01:30:00,37.4,33.0,30.27,ESE,113,2.5,5.6,84,0.00,,,0.00,WUHU216HW,2013-03-04 09:30:00,
2013-03-04 01:35:00,37.6,33.2,30.27,ESE,113,2.2,5.6,84,0.00,,,0.00,WUHU216HW,2013-03-04 09:35:00,
2013-03-04 01:40:00,37.8,33.4,30.27,ENE,68,2.5,5.1,84,0.00,,,0.00,WUHU216HW,2013-03-04 09:40:00,
2013-03-04 01:45:00,37.8,33.4,30.27,ESE,113,1.6,5.1,84,0.00,,,0.00,WUHU216HW,2013-03-04 09:45:00,
2013-03-04 01:50:00,38.0,33.6,30.27,SE,135,1.8,3.8,84,0.00,,,0.00,WUHU216HW,2013-03-04 09:50:00,
2013-03-04 01:55:00,38.0,33.6,30.27,NE,45,2.2,4.3,84,0.00,,,0.00,WUHU216HW,2013-03-04 09:55:00,
2013-03-04 02:00:00,37.8,33.4,30.27,East,90,1.8,4.3,84,0.00,,,0.00,WUHU216HW,2013-03-04 10:00:00,
2013-03-04 02:05:00,37.8,33.4,30.27,ESE,113,2.0,4.0,84,0.00,,,0.00,WUHU216HW,2013-03-04 10:05:00,
2013-03-04 02:10:00,37.8,33.4,30.27,SSE,158,2.5,2.9,84,0.00,,,0.00,WUHU216HW,2013-03-04 10:10:00,
2013-03-04 02:15:00,38.2,34.0,30.27,SSE,158,3.4,4.3,85,0.00,,,0.00,WUHU216HW,2013-03-04 10:15:00,
2013-03-04 02:20:00,38.3,33.9,30.27,SSE,158,3.6,4.3,84,0.00,,,0.00,WUHU216HW,2013-03-04 10:20:00,
2013-03-04 02:25:00,38.5,34.1,30.27,SE,135,3.1,4.3,84,0.00,,,0.00,WUHU216HW,2013-03-04 10:25:00,
2013-03-04 02:30:00,38.5,34.1,30.27,ESE,113,2.5,4.3,84,0.00,,,0.00,WUHU216HW,2013-03-04 10:30:00,
2013-03-04 02:35:00,38.5,34.1,30.27,SSE,158,3.4,4.3,84,0.00,,,0.00,WUHU216HW,2013-03-04 10:35:00,
2013-03-04 02:40:00,38.5,34.1,30.27,SSE,158,1.8,3.4,84,0.00,,,0.00,WUHU216HW,2013-03-04 10:40:00,
2013-03-04 02:45:00,38.5,34.1,30.27,SSE,158,2.0,3.1,84,0.00,,,0.00,WUHU216HW,2013-03-04 10:45:00,
2013-03-04 02:50:00,38.5,34.1,30.27,ESE,113,1.3,2.5,84,0.00,,,0.00,WUHU216HW,2013-03-04 10:50:00,
2013-03-04 02:55:00,38.5,34.1,30.27,East,90,1.8,3.4,84,0.00,,,0.00,WUHU216HW,2013-03-04 10:55:00,
2013-03-04 03:00:00,38.3,33.9,30.27,NNE,23,1.6,3.4,84,0.00,,,0.00,WUHU216HW,2013-03-04 11:00:00,
2013-03-04 03:05:00,38.2,33.8,30.27,ENE,68,1.8,2.5,84,0.00,,,0.00,WUHU216HW,2013-03-04 11:05:00,
2013-03-04 03:10:00,37.8,33.4,30.26,ENE,68,1.6,2.0,84,0.00,,,0.00,WUHU216HW,2013-03-04 11:10:00,
2013-03-04 03:15:00,37.6,33.2,30.26,ENE,68,1.8,2.9,84,0.00,,,0.00,WUHU216HW,2013-03-04 11:15:00,
2013-03-04 03:20:00,37.4,33.0,30.26,East,90,2.0,3.1,84,0.00,,,0.00,WUHU216HW,2013-03-04 11:20:00,
2013-03-04 03:25:00,37.4,33.6,30.26,ENE,68,3.4,4.3,86,0.00,,,0.00,WUHU216HW,2013-03-04 11:25:00,
2013-03-04 03:30:00,37.6,33.5,30.25,NE,45,2.0,4.3,85,0.00,,,0.00,WUHU216HW,2013-03-04 11:30:00,
2013-03-04 03:35:00,37.4,33.0,30.25,NE,45,4.0,6.0,84,0.00,,,0.00,WUHU216HW,2013-03-04 11:35:00,
2013-03-04 03:40:00,37.3,32.9,30.25,East,90,4.0,6.0,84,0.00,,,0.00,WUHU216HW,2013-03-04 11:40:00,
2013-03-04 03:45:00,37.1,32.7,30.25,ENE,68,2.7,6.5,84,0.00,,,0.00,WUHU216HW,2013-03-04 11:45:00,
2013-03-04 03:50:00,37.1,32.9,30.25,North,0,0.4,6.5,85,0.00,,,0.00,WUHU216HW,2013-03-04 11:50:00,
2013-03-04 03:55:00,36.9,32.8,30.25,ENE,68,4.0,4.0,85,0.00,,,0.00,WUHU216HW,2013-03-04 11:55:00,
2013-03-04 04:00:00,36.5,32.7,30.25,NE,45,2.5,5.1,86,0.00,,,0.00,WUHU216HW,2013-03-04 12:00:00,
2013-03-04 04:05:00,36.4,32.5,30.25,NW,315,0.0,5.1,86,0.00,,,0.00,WUHU216HW,2013-03-04 12:05:00,
2013-03-04 04:10:00,36.0,32.1,30.25,NE,45,1.1,2.0,86,0.00,,,0.00,WUHU216HW,2013-03-04 12:10:00,
2013-03-04 04:15:00,35.8,32.0,30.25,NNE,23,0.0,2.0,86,0.00,,,0.00,WUHU216HW,2013-03-04 12:15:00,
2013-03-04 04:20:00,35.6,31.8,30.25,NNE,23,1.1,2.0,86,0.00,,,0.00,WUHU216HW,2013-03-04 12:20:00,
2013-03-04 04:25:00,35.3,31.4,30.25,ENE,68,1.8,2.7,86,0.00,,,0.00,WUHU216HW,2013-03-04 12:25:00,
2013-03-04 04:30:00,35.3,31.7,30.25,NE,45,1.1,2.7,87,0.00,,,0.00,WUHU216HW,2013-03-04 12:30:00,
2013-03-04 04:35:00,35.1,31.5,30.25,NE,45,1.6,2.0,87,0.00,,,0.00,WUHU216HW,2013-03-04 12:35:00,
2013-03-04 04:40:00,35.1,31.5,30.25,ENE,68,0.9,1.8,87,0.00,,,0.00,WUHU216HW,2013-03-04 12:40:00,
2013-03-04 04:45:00,35.3,32.1,30.24,NE,45,2.2,2.2,88,0.00,,,0.00,WUHU216HW,2013-03-04 12:45:00,
2013-03-04 04:50:00,34.9,31.7,30.24,NE,45,2.5,2.7,88,0.00,,,0.00,WUHU216HW,2013-03-04 12:50:00,
2013-03-04 04:55:00,35.1,31.9,30.24,NE,45,1.3,2.7,88,0.00,,,0.00,WUHU216HW,2013-03-04 12:55:00,
2013-03-04 05:00:00,35.1,31.9,30.24,ENE,68,3.4,4.3,88,0.00,,,0.00,WUHU216HW,2013-03-04 13:00:00,
2013-03-04 05:05:00,35.3,31.7,30.24,SE,135,0.4,4.5,87,0.00,,,0.00,WUHU216HW,2013-03-04 13:05:00,
2013-03-04 05:10:00,35.6,32.4,30.24,NE,45,0.9,4.5,88,0.00,,,0.00,WUHU216HW,2013-03-04 13:10:00,
2013-03-04 05:15:00,35.6,32.4,30.24,NE,45,1.8,2.9,88,0.00,,,0.00,WUHU216HW,2013-03-04 13:15:00,
2013-03-04 05:20:00,35.3,32.1,30.24,North,0,1.3,2.9,88,0.00,,,0.00,WUHU216HW,2013-03-04 13:20:00,
2013-03-04 05:25:00,34.7,31.5,30.24,NNW,338,1.3,2.7,88,0.00,,,0.00,WUHU216HW,2013-03-04 13:25:00,
2013-03-04 05:30:00,34.6,31.6,30.24,North,0,0.4,1.8,89,0.00,,,0.00,WUHU216HW,2013-03-04 13:30:00,
2013-03-04 05:35:00,34.6,31.6,30.24,North,0,0.0,1.3,89,0.00,,,0.00,WUHU216HW,2013-03-04 13:35:00,
2013-03-04 05:40:00,34.4,31.4,30.24,North,0,1.1,1.8,89,0.00,,,0.00,WUHU216HW,2013-03-04 13:40:00,
2013-03-04 05:45:00,34.4,31.4,30.24,North,0,1.1,1.8,89,0.00,,,0.00,WUHU216HW,2013-03-04 13:45:00,
2013-03-04 05:50:00,34.6,31.9,30.24,NE,45,1.6,1.8,90,0.00,,,0.00,WUHU216HW,2013-03-04 13:50:00,
2013-03-04 05:55:00,34.9,32.2,30.24,NNE,23,1.1,1.8,90,0.00,,,0.00,WUHU216HW,2013-03-04 13:55:00,
2013-03-04 06:00:00,34.6,31.6,30.24,NNE,23,1.3,1.8,89,0.00,,,0.00,WUHU216HW,2013-03-04 14:00:00,
2013-03-04 06:05:00,34.6,31.9,30.23,NNE,23,0.9,1.3,90,0.00,,,0.00,WUHU216HW,2013-03-04 14:05:00,
2013-03-04 06:10:00,34.7,32.0,30.23,NE,45,0.9,1.3,90,0.00,,,0.00,WUHU216HW,2013-03-04 14:10:00,
2013-03-04 06:15:00,34.9,32.2,30.23,NE,45,1.1,1.3,90,0.00,,,0.00,WUHU216HW,2013-03-04 14:15:00,
2013-03-04 06:20:00,34.9,32.2,30.23,NE,45,1.8,2.2,90,0.00,,,0.00,WUHU216HW,2013-03-04 14:20:00,
2013-03-04 06:25:00,34.9,32.2,30.23,NE,45,1.8,2.5,90,0.00,,,0.00,WUHU216HW,2013-03-04 14:25:00,
2013-03-04 06:30:00,34.9,32.2,30.23,ENE,68,1.6,2.5,90,0.00,,,0.00,WUHU216HW,2013-03-04 14:30:00,
2013-03-04 06:35:00,35.1,32.4,30.22,NE,45,0.0,2.5,90,0.00,,,0.00,WUHU216HW,2013-03-04 14:35:00,
2013-03-04 06:40:00,34.9,32.2,30.22,North,0,0.0,1.3,90,0.00,,,0.00,WUHU216HW,2013-03-04 14:40:00,
2013-03-04 06:45:00,34.9,32.2,30.22,NE,45,1.8,1.8,90,0.00,,,0.00,WUHU216HW,2013-03-04 14:45:00,
2013-03-04 06:50:00,34.9,32.2,30.22,NNE,23,0.9,2.2,90,0.00,,,0.00,WUHU216HW,2013-03-04 14:50:00,
2013-03-04 06:55:00,34.9,32.2,30.22,NNW,338,0.9,2.2,90,0.00,,,0.00,WUHU216HW,2013-03-04 14:55:00,
2013-03-04 07:00:00,34.9,32.5,30.22,North,0,0.0,1.1,91,0.00,,,0.00,WUHU216HW,2013-03-04 15:00:00,
2013-03-04 07:05:00,35.1,32.4,30.22,SW,225,0.0,1.6,90,0.00,,,0.00,WUHU216HW,2013-03-04 15:05:00,
2013-03-04 07:10:00,35.3,32.6,30.22,NE,45,1.1,1.6,90,0.00,,,0.00,WUHU216HW,2013-03-04 15:10:00,
2013-03-04 07:15:00,35.5,32.8,30.22,NE,45,0.9,1.1,90,0.00,,,0.00,WUHU216HW,2013-03-04 15:15:00,
2013-03-04 07:20:00,35.6,32.9,30.22,East,90,0.4,1.1,90,0.00,,,0.00,WUHU216HW,2013-03-04 15:20:00,
2013-03-04 07:25:00,35.6,32.9,30.22,East,90,0.0,1.1,90,0.00,,,0.00,WUHU216HW,2013-03-04 15:25:00,
2013-03-04 07:30:00,35.6,32.7,30.22,NE,45,0.4,0.4,89,0.00,,,0.00,WUHU216HW,2013-03-04 15:30:00,
2013-03-04 07:35:00,35.6,32.7,30.22,NE,45,0.0,0.9,89,0.00,,,0.00,WUHU216HW,2013-03-04 15:35:00,
2013-03-04 07:40:00,35.8,32.9,30.22,NE,45,0.0,0.9,89,0.00,,,0.00,WUHU216HW,2013-03-04 15:40:00,
2013-03-04 07:45:00,36.0,33.0,30.22,NE,45,0.0,0.0,89,0.00,,,0.00,WUHU216HW,2013-03-04 15:45:00,
2013-03-04 07:50:00,36.0,33.0,30.22,NNW,338,0.4,0.9,89,0.00,,,0.00,WUHU216HW,2013-03-04 15:50:00,
2013-03-04 07:55:00,36.2,33.5,30.22,NNW,338,0.0,1.1,90,0.00,,,0.00,WUHU216HW,2013-03-04 15:55:00,
2013-03-04 08:00:00,36.2,33.2,30.21,North,0,0.0,1.1,89,0.00,,,0.00,WUHU216HW,2013-03-04 16:00:00,
2013-03-04 08:06:00,36.4,33.4,30.22,East,90,1.1,1.8,89,0.00,,,0.00,WUHU216HW,2013-03-04 16:06:00,
2013-03-04 08:11:00,36.4,33.4,30.22,South,180,0.0,1.8,89,0.00,,,0.00,WUHU216HW,2013-03-04 16:11:00,
2013-03-04 08:16:00,36.9,33.9,30.21,NE,45,0.7,1.3,89,0.00,,,0.00,WUHU216HW,2013-03-04 16:16:00,
2013-03-04 08:21:00,37.1,34.1,30.21,SE,135,1.8,2.2,89,0.00,,,0.00,WUHU216HW,2013-03-04 16:21:00,
2013-03-04 08:27:00,37.6,34.9,30.22,ESE,113,1.6,2.2,90,0.00,,,0.00,WUHU216HW,2013-03-04 16:27:00,
2013-03-04 08:32:00,37.8,34.8,30.22,ESE,113,0.2,2.7,89,0.00,,,0.00,WUHU216HW,2013-03-04 16:32:00,
2013-03-04 08:37:00,38.0,35.0,30.21,SSW,203,1.1,2.7,89,0.00,,,0.00,WUHU216HW,2013-03-04 16:37:00,
2013-03-04 08:42:00,38.0,34.4,30.21,South,180,1.1,1.8,87,0.00,,,0.00,WUHU216HW,2013-03-04 16:42:00,
2013-03-04 08:47:00,38.0,34.4,30.22,SSW,203,1.6,2.5,87,0.00,,,0.00,WUHU216HW,2013-03-04 16:47:00,
2013-03-04 08:52:00,38.2,34.6,30.22,SSW,203,1.8,2.5,87,0.00,,,0.00,WUHU216HW,2013-03-04 16:52:00,
2013-03-04 08:57:00,38.3,34.7,30.22,SSW,203,1.8,2.2,87,0.00,,,0.00,WUHU216HW,2013-03-04 16:57:00,
2013-03-04 09:02:00,38.2,34.6,30.21,SSW,203,1.6,2.0,87,0.00,,,0.00,WUHU216HW,2013-03-04 17:02:00,
2013-03-04 09:07:00,38.2,34.3,30.21,SSW,203,1.8,2.2,86,0.00,,,0.00,WUHU216HW,2013-03-04 17:07:00,
2013-03-04 09:12:00,38.2,34.3,30.21,SSW,203,1.3,2.5,86,0.00,,,0.00,WUHU216HW,2013-03-04 17:12:00,
2013-03-04 09:17:00,38.2,34.6,30.21,SSW,203,1.6,2.5,87,0.00,,,0.00,WUHU216HW,2013-03-04 17:17:00,
2013-03-04 09:22:00,38.3,34.7,30.21,SSW,203,1.3,2.2,87,0.00,,,0.00,WUHU216HW,2013-03-04 17:22:00,
2013-03-04 09:27:00,38.5,34.7,30.21,SE,135,1.1,2.0,86,0.00,,,0.00,WUHU216HW,2013-03-04 17:27:00,
2013-03-04 09:32:00,38.7,35.1,30.21,SSW,203,1.1,2.0,87,0.00,,,0.00,WUHU216HW,2013-03-04 17:32:00,
2013-03-04 09:37:00,39.1,35.2,30.21,SSW,203,2.0,2.5,86,0.00,,,0.00,WUHU216HW,2013-03-04 17:37:00,
2013-03-04 09:42:00,39.2,35.4,30.21,SE,135,1.8,2.5,86,0.00,,,0.00,WUHU216HW,2013-03-04 17:42:00,
2013-03-04 09:47:00,39.6,35.5,30.21,South,180,1.8,2.5,85,0.00,,,0.00,WUHU216HW,2013-03-04 17:47:00,
2013-03-04 09:52:00,39.6,35.5,30.20,South,180,1.8,2.5,85,0.00,,,0.00,WUHU216HW,2013-03-04 17:52:00,
2013-03-04 09:57:00,39.8,35.7,30.20,SE,135,2.5,2.5,85,0.00,,,0.00,WUHU216HW,2013-03-04 17:57:00,
2013-03-04 10:02:00,40.0,35.8,30.20,ENE,68,1.6,2.9,85,0.00,,,0.00,WUHU216HW,2013-03-04 18:02:00,
2013-03-04 10:07:00,40.1,35.9,30.20,East,90,1.8,2.9,85,0.00,,,0.00,WUHU216HW,2013-03-04 18:07:00,
2013-03-04 10:12:00,40.3,35.8,30.20,East,90,1.8,2.5,84,0.00,,,0.00,WUHU216HW,2013-03-04 18:12:00,
2013-03-04 10:17:00,40.7,36.5,30.20,East,90,1.8,2.5,85,0.00,,,0.00,WUHU216HW,2013-03-04 18:17:00,
2013-03-04 10:22:00,41.0,36.6,30.20,SSW,203,2.9,2.9,84,0.00,,,0.00,WUHU216HW,2013-03-04 18:22:00,
2013-03-04 10:27:00,41.2,36.7,30.20,SSW,203,2.5,3.1,84,0.00,,,0.00,WUHU216HW,2013-03-04 18:27:00,
2013-03-04 10:29:00,41.2,36.7,30.20,South,180,1.3,3.1,84,0.00,,,0.00,WUHU216HW,2013-03-04 18:29:00,
2013-03-04 10:30:00,41.2,36.7,30.20,South,180,1.3,3.1,84,0.00,,,0.00,WUHU216HW,2013-03-04 18:30:00,
2013-03-04 10:35:00,41.2,36.7,30.20,SSW,203,1.6,3.1,84,0.00,,,0.00,WUHU216HW,2013-03-04 18:35:00,
2013-03-04 10:40:00,41.4,36.9,30.20,SE,135,1.1,2.5,84,0.00,,,0.00,WUHU216HW,2013-03-04 18:40:00,
2013-03-04 10:45:00,41.8,37.5,30.20,SSE,158,0.2,2.5,85,0.00,,,0.00,WUHU216HW,2013-03-04 18:45:00,
2013-03-04 10:50:00,41.9,37.7,30.20,SSE,158,1.6,2.5,85,0.00,,,0.00,WUHU216HW,2013-03-04 18:50:00,
2013-03-04 10:55:00,42.1,37.9,30.19,ENE,68,1.3,3.4,85,0.00,,,0.00,WUHU216HW,2013-03-04 18:55:00,
2013-03-04 11:00:00,42.3,37.8,30.19,South,180,1.6,3.4,84,0.00,,,0.00,WUHU216HW,2013-03-04 19:00:00,
2013-03-04 11:05:00,42.7,37.8,30.19,SW,225,2.2,2.5,83,0.00,,,0.00,WUHU216HW,2013-03-04 19:05:00,
2013-03-04 11:10:00,42.7,37.8,30.18,SSW,203,2.5,2.5,83,0.00,,,0.00,WUHU216HW,2013-03-04 19:10:00,
2013-03-04 11:15:00,42.5,37.4,30.18,South,180,2.5,2.9,82,0.00,,,0.00,WUHU216HW,2013-03-04 19:15:00,
2013-03-04 11:20:00,42.7,37.5,30.17,SW,225,1.6,2.9,82,0.00,,,0.00,WUHU216HW,2013-03-04 19:20:00,
2013-03-04 11:25:00,42.5,37.0,30.17,SW,225,1.8,2.9,81,0.00,,,0.00,WUHU216HW,2013-03-04 19:25:00,
2013-03-04 11:30:00,42.7,37.2,30.17,SSW,203,3.6,4.0,81,0.00,,,0.00,WUHU216HW,2013-03-04 19:30:00,
2013-03-04 11:35:00,42.8,37.4,30.17,South,180,3.1,4.0,81,0.00,,,0.00,WUHU216HW,2013-03-04 19:35:00,
2013-03-04 11:40:00,42.8,37.4,30.17,SSW,203,2.5,4.0,81,0.00,,,0.00,WUHU216HW,2013-03-04 19:40:00,
2013-03-04 11:45:00,43.0,37.5,30.17,SSW,203,2.5,4.0,81,0.00,,,0.00,WUHU216HW,2013-03-04 19:45:00,
2013-03-04 11:50:00,43.2,37.1,30.17,SW,225,3.4,4.0,79,0.00,,,0.00,WUHU216HW,2013-03-04 19:50:00,
2013-03-04 11:55:00,43.7,37.0,30.16,SW,225,3.4,4.0,77,0.00,,,0.00,WUHU216HW,2013-03-04 19:55:00,
2013-03-04 12:00:00,44.3,36.5,30.16,WSW,248,2.7,4.0,74,0.00,,,0.00,WUHU216HW,2013-03-04 20:00:00,
2013-03-04 12:05:00,44.8,37.4,30.16,SSW,203,2.5,4.0,75,0.00,,,0.00,WUHU216HW,2013-03-04 20:05:00,
2013-03-04 12:10:00,45.0,37.2,30.15,SW,225,2.9,3.4,74,0.00,,,0.00,WUHU216HW,2013-03-04 20:10:00,
2013-03-04 12:15:00,45.2,37.0,30.15,SSE,158,3.4,3.4,73,0.00,,,0.00,WUHU216HW,2013-03-04 20:15:00,
2013-03-04 12:20:00,45.2,36.4,30.15,SW,225,3.4,4.0,71,0.00,,,0.00,WUHU216HW,2013-03-04 20:20:00,
2013-03-04 12:25:00,45.5,36.4,30.15,SSW,203,4.3,4.3,70,0.00,,,0.00,WUHU216HW,2013-03-04 20:25:00,
2013-03-04 12:30:00,45.7,35.7,30.15,SSW,203,3.4,4.9,68,0.00,,,0.00,WUHU216HW,2013-03-04 20:30:00,
2013-03-04 12:35:00,46.1,37.3,30.14,ENE,68,1.8,4.9,71,0.00,,,0.00,WUHU216HW,2013-03-04 20:35:00,
2013-03-04 12:40:00,46.1,37.3,30.14,ENE,68,2.5,3.1,71,0.00,,,0.00,WUHU216HW,2013-03-04 20:40:00,
2013-03-04 12:45:00,45.9,36.4,30.14,SSW,203,2.0,4.3,69,0.00,,,0.00,WUHU216HW,2013-03-04 20:45:00,
2013-03-04 12:50:00,46.3,36.3,30.14,WSW,248,1.8,4.3,68,0.00,,,0.00,WUHU216HW,2013-03-04 20:50:00,
2013-03-04 12:55:00,46.8,36.5,30.13,NNW,338,1.3,2.7,67,0.00,,,0.00,WUHU216HW,2013-03-04 20:55:00,
2013-03-04 13:00:00,47.2,37.2,30.13,NW,315,1.6,3.4,68,0.00,,,0.00,WUHU216HW,2013-03-04 21:00:00,
2013-03-04 13:05:00,47.5,37.1,30.13,SSW,203,2.0,3.4,67,0.00,,,0.00,WUHU216HW,2013-03-04 21:05:00,
2013-03-04 13:10:00,47.7,37.6,30.12,WSW,248,1.8,2.9,68,0.00,,,0.00,WUHU216HW,2013-03-04 21:10:00,
2013-03-04 13:15:00,47.9,38.2,30.12,West,270,0.4,2.9,69,0.00,,,0.00,WUHU216HW,2013-03-04 21:15:00,
2013-03-04 13:20:00,47.9,37.8,30.12,NE,45,0.9,2.9,68,0.00,,,0.00,WUHU216HW,2013-03-04 21:20:00,
2013-03-04 13:25:00,47.9,37.0,30.11,SSW,203,2.2,2.9,66,0.00,,,0.00,WUHU216HW,2013-03-04 21:25:00,
2013-03-04 13:30:00,48.1,37.2,30.10,North,0,1.1,2.7,66,0.00,,,0.00,WUHU216HW,2013-03-04 21:30:00,
2013-03-04 13:35:00,48.2,36.6,30.11,SW,225,0.7,2.7,64,0.00,,,0.00,WUHU216HW,2013-03-04 21:35:00,
2013-03-04 13:40:00,48.4,37.5,30.10,NW,315,0.9,3.6,66,0.00,,,0.00,WUHU216HW,2013-03-04 21:40:00,
2013-03-04 13:45:00,48.6,37.0,30.10,ENE,68,2.5,3.6,64,0.00,,,0.00,WUHU216HW,2013-03-04 21:45:00,
2013-03-04 13:50:00,48.4,37.2,30.10,NE,45,0.4,2.5,65,0.00,,,0.00,WUHU216HW,2013-03-04 21:50:00,
2013-03-04 13:55:00,48.4,37.2,30.10,NE,45,0.4,2.5,65,0.00,,,0.00,WUHU216HW,2013-03-04 21:55:00,
2013-03-04 14:00:00,49.3,38.4,30.09,ENE,68,1.1,1.6,66,0.00,,,0.00,WUHU216HW,2013-03-04 22:00:00,
2013-03-04 14:05:00,49.3,38.0,30.09,SE,135,1.1,2.9,65,0.00,,,0.00,WUHU216HW,2013-03-04 22:05:00,
2013-03-04 14:10:00,49.5,38.6,30.09,East,90,1.8,2.9,66,0.00,,,0.00,WUHU216HW,2013-03-04 22:10:00,
2013-03-04 14:15:00,49.5,38.6,30.08,East,90,0.4,2.2,66,0.00,,,0.00,WUHU216HW,2013-03-04 22:15:00,
2013-03-04 14:20:00,49.5,38.2,30.08,South,180,1.3,3.1,65,0.00,,,0.00,WUHU216HW,2013-03-04 22:20:00,
2013-03-04 14:25:00,49.5,38.2,30.08,South,180,1.3,3.1,65,0.00,,,0.00,WUHU216HW,2013-03-04 22:25:00,
2013-03-04 14:59:00,48.6,37.7,30.07,North,0,1.1,1.1,66,0.00,,,0.00,WUHU216HW,2013-03-04 22:59:00,
2013-03-04 15:04:00,49.0,38.1,30.06,NE,45,2.9,2.9,66,0.00,,,0.00,WUHU216HW,2013-03-04 23:04:00,
2013-03-04 15:09:00,49.0,38.1,30.06,SSE,158,1.3,2.9,66,0.00,,,0.00,WUHU216HW,2013-03-04 23:09:00,
2013-03-04 15:14:00,48.8,38.3,30.06,SE,135,0.0,2.9,67,0.00,,,0.00,WUHU216HW,2013-03-04 23:14:00,
2013-03-04 15:19:00,48.8,38.6,30.06,SSW,203,0.2,1.6,68,0.00,,,0.00,WUHU216HW,2013-03-04 23:19:00,
2013-03-04 15:24:00,48.8,38.6,30.05,SE,135,0.9,1.8,68,0.00,,,0.00,WUHU216HW,2013-03-04 23:24:00,
2013-03-04 15:29:00,48.8,38.6,30.04,NNW,338,1.8,3.6,68,0.00,,,0.00,WUHU216HW,2013-03-04 23:29:00,
2013-03-04 15:34:00,48.8,38.6,30.04,ENE,68,0.7,3.6,68,0.00,,,0.00,WUHU216HW,2013-03-04 23:34:00,
2013-03-04 15:39:00,48.8,38.6,30.04,East,90,0.9,1.8,68,0.00,,,0.00,WUHU216HW,2013-03-04 23:39:00,
2013-03-04 15:44:00,48.8,38.6,30.04,East,90,0.9,0.9,68,0.00,,,0.00,WUHU216HW,2013-03-04 23:44:00,
2013-03-04 15:59:00,47.5,38.3,30.03,NNW,338,2.2,2.2,70,0.00,,,0.00,WUHU216HW,2013-03-04 23:59:00,
2013-03-04 16:04:00,47.3,38.4,30.03,NNE,23,0.7,3.4,71,0.00,,,0.00,WUHU216HW,2013-03-05 00:04:00,
2013-03-04 16:10:00,47.2,38.3,30.03,NNW,338,0.4,3.4,71,0.00,,,0.00,WUHU216HW,2013-03-05 00:10:00,
2013-03-04 16:15:00,47.2,38.3,30.02,ESE,113,1.3,3.4,71,0.00,,,0.00,WUHU216HW,2013-03-05 00:15:00,
2013-03-04 16:20:00,47.2,38.3,30.02,SE,135,0.2,1.8,71,0.00,,,0.00,WUHU216HW,2013-03-05 00:20:00,
2013-03-04 16:25:00,47.0,38.1,30.02,NNW,338,1.1,1.8,71,0.00,,,0.00,WUHU216HW,2013-03-05 00:25:00,
2013-03-04 16:30:00,46.8,37.9,30.01,NNW,338,1.3,1.8,71,0.00,,,0.00,WUHU216HW,2013-03-05 00:30:00,
2013-03-04 16:35:00,46.6,38.1,30.02,South,180,1.1,1.8,72,0.00,,,0.00,WUHU216HW,2013-03-05 00:35:00,
2013-03-04 16:40:00,46.4,38.0,30.01,WNW,293,0.0,3.6,72,0.00,,,0.00,WUHU216HW,2013-03-05 00:40:00,
2013-03-04 16:45:00,46.3,37.8,30.01,North,0,0.2,3.6,72,0.00,,,0.00,WUHU216HW,2013-03-05 00:45:00,
2013-03-04 16:50:00,46.1,37.6,30.01,NNE,23,0.0,1.3,72,0.00,,,0.00,WUHU216HW,2013-03-05 00:50:00,
2013-03-04 16:55:00,45.9,37.7,30.01,NW,315,0.9,1.3,73,0.00,,,0.00,WUHU216HW,2013-03-05 00:55:00,
2013-03-04 17:00:00,45.7,37.9,30.00,NE,45,1.1,1.8,74,0.00,,,0.00,WUHU216HW,2013-03-05 01:00:00,
2013-03-04 17:05:00,45.7,37.5,30.01,West,270,0.7,1.8,73,0.00,,,0.00,WUHU216HW,2013-03-05 01:05:00,
2013-03-04 17:10:00,45.7,37.5,30.01,SSE,158,1.3,1.8,73,0.00,,,0.00,WUHU216HW,2013-03-05 01:10:00,
2013-03-04 17:15:00,45.7,37.9,30.00,NNW,338,0.7,2.7,74,0.00,,,0.00,WUHU216HW,2013-03-05 01:15:00,
2013-03-04 17:20:00,45.5,37.7,30.00,NNE,23,1.3,2.7,74,0.00,,,0.00,WUHU216HW,2013-03-05 01:20:00,
2013-03-04 17:25:00,45.4,37.5,30.00,NNE,23,0.2,1.8,74,0.00,,,0.00,WUHU216HW,2013-03-05 01:25:00,
2013-03-04 17:30:00,45.2,37.4,29.99,NE,45,1.1,1.8,74,0.00,,,0.00,WUHU216HW,2013-03-05 01:30:00,
2013-03-04 17:35:00,45.2,37.4,29.99,East,90,1.3,2.5,74,0.00,,,0.00,WUHU216HW,2013-03-05 01:35:00,
2013-03-04 17:40:00,45.2,37.4,29.99,NW,315,0.4,2.5,74,0.00,,,0.00,WUHU216HW,2013-03-05 01:40:00,
2013-03-04 17:45:00,45.2,37.4,29.99,NW,315,0.4,1.8,74,0.00,,,0.00,WUHU216HW,2013-03-05 01:45:00,
2013-03-04 17:59:00,44.5,37.4,29.99,NNE,23,1.1,1.1,76,0.00,,,0.00,WUHU216HW,2013-03-05 01:59:00,
2013-03-04 18:04:00,44.5,37.4,29.99,NNE,23,1.1,1.8,76,0.00,,,0.00,WUHU216HW,2013-03-05 02:04:00,
2013-03-04 18:09:00,44.5,37.4,29.99,NNW,338,0.2,2.0,76,0.00,,,0.00,WUHU216HW,2013-03-05 02:09:00,
2013-03-04 18:14:00,44.5,37.0,29.99,North,0,0.0,2.0,75,0.00,,,0.00,WUHU216HW,2013-03-05 02:14:00,
2013-03-04 18:19:00,44.5,37.0,29.98,NE,45,0.2,1.8,75,0.00,,,0.00,WUHU216HW,2013-03-05 02:19:00,
2013-03-04 18:24:00,44.5,37.0,29.99,NNE,23,1.6,1.8,75,0.00,,,0.00,WUHU216HW,2013-03-05 02:24:00,
2013-03-04 18:30:00,44.5,37.4,29.98,North,0,1.6,1.8,76,0.00,,,0.00,WUHU216HW,2013-03-05 02:30:00,
2013-03-04 18:35:00,44.3,37.2,29.98,NNW,338,0.0,1.8,76,0.00,,,0.00,WUHU216HW,2013-03-05 02:35:00,
2013-03-04 18:40:00,44.3,37.2,29.98,NE,45,1.8,1.8,76,0.00,,,0.00,WUHU216HW,2013-03-05 02:40:00,
2013-03-04 18:45:00,44.3,37.2,29.98,NNW,338,1.6,1.8,76,0.00,,,0.00,WUHU216HW,2013-03-05 02:45:00,
2013-03-04 18:50:00,44.1,37.0,29.98,West,270,1.1,2.0,76,0.00,,,0.00,WUHU216HW,2013-03-05 02:50:00,
2013-03-04 18:55:00,44.3,36.8,29.97,ENE,68,0.4,2.0,75,0.00,,,0.00,WUHU216HW,2013-03-05 02:55:00,
2013-03-04 19:00:00,44.3,36.8,29.97,NNE,23,0.4,1.8,75,0.00,,,0.00,WUHU216HW,2013-03-05 03:00:00,
2013-03-04 19:05:00,44.3,36.8,29.97,NNW,338,0.4,1.8,75,0.00,,,0.00,WUHU216HW,2013-03-05 03:05:00,
2013-03-04 19:10:00,44.1,36.6,29.97,NNW,338,1.8,2.0,75,0.00,,,0.00,WUHU216HW,2013-03-05 03:10:00,
2013-03-04 19:15:00,44.3,36.8,29.97,NNE,23,1.1,2.0,75,0.00,,,0.00,WUHU216HW,2013-03-05 03:15:00,
2013-03-04 19:20:00,44.3,36.5,29.97,NNE,23,1.1,1.8,74,0.00,,,0.00,WUHU216HW,2013-03-05 03:20:00,
2013-03-04 19:25:00,44.3,36.5,29.96,NW,315,0.7,2.7,74,0.00,,,0.00,WUHU216HW,2013-03-05 03:25:00,
2013-03-04 19:30:00,44.5,36.6,29.96,NNW,338,1.1,2.9,74,0.00,,,0.00,WUHU216HW,2013-03-05 03:30:00,
2013-03-04 19:35:00,44.5,36.6,29.96,NNE,23,0.2,2.9,74,0.00,,,0.00,WUHU216HW,2013-03-05 03:35:00,
2013-03-04 19:40:00,44.5,36.4,29.96,NNW,338,0.9,2.5,73,0.00,,,0.00,WUHU216HW,2013-03-05 03:40:00,
2013-03-04 19:45:00,44.5,36.4,29.96,NE,45,0.7,2.0,73,0.00,,,0.00,WUHU216HW,2013-03-05 03:45:00,
2013-03-04 19:50:00,44.5,36.0,29.96,North,0,0.7,1.8,72,0.00,,,0.00,WUHU216HW,2013-03-05 03:50:00,
2013-03-04 19:55:00,44.6,36.2,29.96,North,0,0.9,1.8,72,0.00,,,0.00,WUHU216HW,2013-03-05 03:55:00,
2013-03-04 20:00:00,44.6,36.2,29.96,NE,45,2.7,2.7,72,0.00,,,0.00,WUHU216HW,2013-03-05 04:00:00,
2013-03-04 20:05:00,44.6,33.9,29.95,NNE,23,3.1,5.4,66,0.00,,,0.00,WUHU216HW,2013-03-05 04:05:00,
2013-03-04 20:10:00,45.2,34.8,29.96,NE,45,1.8,5.4,67,0.00,,,0.00,WUHU216HW,2013-03-05 04:10:00,
2013-03-04 20:15:00,45.4,35.4,29.96,South,180,0.2,4.5,68,0.00,,,0.00,WUHU216HW,2013-03-05 04:15:00,
2013-03-04 20:20:00,45.2,34.5,29.96,East,90,1.1,3.6,66,0.00,,,0.00,WUHU216HW,2013-03-05 04:20:00,
2013-03-04 20:25:00,45.2,35.2,29.96,NE,45,0.0,3.6,68,0.00,,,0.00,WUHU216HW,2013-03-05 04:25:00,
2013-03-04 20:30:00,45.2,34.8,29.96,West,270,0.0,2.5,67,0.00,,,0.00,WUHU216HW,2013-03-05 04:30:00,
2013-03-04 20:35:00,45.0,35.1,29.96,SSE,158,0.0,1.3,68,0.00,,,0.00,WUHU216HW,2013-03-05 04:35:00,
2013-03-04 20:40:00,44.8,34.5,29.95,NNW,338,0.9,2.0,67,0.00,,,0.00,WUHU216HW,2013-03-05 04:40:00,
2013-03-04 20:45:00,44.8,34.9,29.95,WSW,248,0.2,2.7,68,0.00,,,0.00,WUHU216HW,2013-03-05 04:45:00,
2013-03-04 20:50:00,45.0,34.7,29.95,NNW,338,1.1,2.7,67,0.00,,,0.00,WUHU216HW,2013-03-05 04:50:00,
2013-03-04 20:55:00,44.8,34.9,29.95,SSW,203,0.4,1.8,68,0.00,,,0.00,WUHU216HW,2013-03-05 04:55:00,
2013-03-04 21:00:00,44.8,34.5,29.95,NE,45,0.7,2.9,67,0.00,,,0.00,WUHU216HW,2013-03-05 05:00:00,
2013-03-04 21:05:00,45.0,34.3,29.95,NNE,23,0.0,2.9,66,0.00,,,0.00,WUHU216HW,2013-03-05 05:05:00,
2013-03-04 21:10:00,44.8,34.1,29.95,East,90,2.5,3.1,66,0.00,,,0.00,WUHU216HW,2013-03-05 05:10:00,
2013-03-04 21:15:00,44.5,33.8,29.95,NE,45,1.8,3.1,66,0.00,,,0.00,WUHU216HW,2013-03-05 05:15:00,
2013-03-04 21:20:00,44.5,34.2,29.95,NNE,23,0.0,2.5,67,0.00,,,0.00,WUHU216HW,2013-03-05 05:20:00,
2013-03-04 21:25:00,44.3,34.4,29.95,WNW,293,0.0,2.0,68,0.00,,,0.00,WUHU216HW,2013-03-05 05:25:00,
2013-03-04 21:30:00,44.5,34.6,29.95,SSW,203,1.1,2.2,68,0.00,,,0.00,WUHU216HW,2013-03-05 05:30:00,
2013-03-04 21:35:00,44.3,34.7,29.95,WSW,248,0.0,2.2,69,0.00,,,0.00,WUHU216HW,2013-03-05 05:35:00,
2013-03-04 21:40:00,44.1,34.6,29.95,NNE,23,0.0,1.8,69,0.00,,,0.00,WUHU216HW,2013-03-05 05:40:00,
2013-03-04 21:45:00,43.9,34.0,29.95,East,90,0.4,2.9,68,0.00,,,0.00,WUHU216HW,2013-03-05 05:45:00,
2013-03-04 21:50:00,43.7,34.3,29.95,SSW,203,2.0,2.9,69,0.00,,,0.00,WUHU216HW,2013-03-05 05:50:00,
2013-03-04 21:55:00,43.6,33.8,29.95,East,90,0.2,2.0,68,0.00,,,0.00,WUHU216HW,2013-03-05 05:55:00,
2013-03-04 22:00:00,43.6,33.3,29.95,North,0,1.6,2.0,67,0.00,,,0.00,WUHU216HW,2013-03-05 06:00:00,
2013-03-04 22:05:00,43.6,33.3,29.95,NE,45,1.8,3.8,67,0.00,,,0.00,WUHU216HW,2013-03-05 06:05:00,
2013-03-04 22:10:00,43.6,33.8,29.95,NW,315,0.0,3.8,68,0.00,,,0.00,WUHU216HW,2013-03-05 06:10:00,
2013-03-04 22:15:00,43.6,33.8,29.95,SW,225,0.2,1.8,68,0.00,,,0.00,WUHU216HW,2013-03-05 06:15:00,
2013-03-04 22:20:00,43.6,33.8,29.95,NE,45,0.0,1.3,68,0.00,,,0.00,WUHU216HW,2013-03-05 06:20:00,
2013-03-04 22:25:00,43.2,33.4,29.95,NNW,338,1.3,1.3,68,0.00,,,0.00,WUHU216HW,2013-03-05 06:25:00,
2013-03-04 22:30:00,43.0,33.2,29.95,NNW,338,0.4,1.8,68,0.00,,,0.00,WUHU216HW,2013-03-05 06:30:00,
2013-03-04 22:35:00,42.8,33.5,29.95,South,180,0.7,2.9,69,0.00,,,0.00,WUHU216HW,2013-03-05 06:35:00,
2013-03-04 22:40:00,42.5,33.1,29.95,North,0,1.3,3.1,69,0.00,,,0.00,WUHU216HW,2013-03-05 06:40:00,
2013-03-04 22:45:00,42.5,33.5,29.94,ENE,68,1.1,3.1,70,0.00,,,0.00,WUHU216HW,2013-03-05 06:45:00,
2013-03-04 22:50:00,42.3,33.3,29.94,North,0,0.4,2.9,70,0.00,,,0.00,WUHU216HW,2013-03-05 06:50:00,
2013-03-04 22:55:00,42.3,33.3,29.93,NE,45,1.8,2.9,70,0.00,,,0.00,WUHU216HW,2013-03-05 06:55:00,
2013-03-04 23:00:00,42.3,33.3,29.93,North,0,0.9,1.8,70,0.00,,,0.00,WUHU216HW,2013-03-05 07:00:00,
2013-03-04 23:05:00,42.3,33.3,29.92,North,0,0.9,1.8,70,0.00,,,0.00,WUHU216HW,2013-03-05 07:05:00,
2013-03-04 23:10:00,42.3,33.7,29.92,WSW,248,0.4,1.8,71,0.00,,,0.00,WUHU216HW,2013-03-05 07:10:00,
2013-03-04 23:15:00,42.5,33.9,29.92,WNW,293,0.0,1.8,71,0.00,,,0.00,WUHU216HW,2013-03-05 07:15:00,
2013-03-04 23:20:00,42.5,33.5,29.92,WSW,248,0.0,2.2,70,0.00,,,0.00,WUHU216HW,2013-03-05 07:20:00,
2013-03-04 23:25:00,42.5,33.1,29.92,NW,315,0.4,2.2,69,0.00,,,0.00,WUHU216HW,2013-03-05 07:25:00,
2013-03-04 23:30:00,42.5,33.5,29.92,NW,315,0.0,1.1,70,0.00,,,0.00,WUHU216HW,2013-03-05 07:30:00,
2013-03-04 23:35:00,42.5,33.5,29.92,NW,315,0.4,0.9,70,0.00,,,0.00,WUHU216HW,2013-03-05 07:35:00,
2013-03-04 23:40:00,42.3,33.3,29.93,NNW,338,0.4,1.1,70,0.00,,,0.00,WUHU216HW,2013-03-05 07:40:00,
2013-03-04 23:45:00,42.1,33.5,29.92,NE,45,1.1,1.8,71,0.00,,,0.00,WUHU216HW,2013-03-05 07:45:00,
2013-03-04 23:50:00,41.8,33.1,29.92,NW,315,0.0,1.8,71,0.00,,,0.00,WUHU216HW,2013-03-05 07:50:00,
2013-03-04 23:55:00,41.6,33.0,29.92,NE,45,0.0,1.8,71,0.00,,,0.00,WUHU216HW,2013-03-05 07:55:00,